Home   Weather   Rehovot   Past weeks

Flag for Israel Past Weather in Rehovot, Israel — Yesterday and Last 2 Weeks

Now
63 °F

Clear.


Feels Like: 63 °F
Forecast: 56 / 78 °F
Wind: 3 mph from North

Location: Ben Gurion International Airport

Current Time: Feb 27, 2017 at 8:36:30 pm

Latest Report: Feb 27, 2017 at 7:50 pm


Visibility: 10 mi

Pressure: 29.89 "Hg

Humidity: 77%

Dew Point: 55 °F

Location of RehovotLocation

Past Weather in Rehovot — Graph

°F

Rehovot Temperature Yesterday

Maximum temperature yesterday: 72 °F (at 3:20 pm)
Minimum temperature yesterday: 45 °F (at 3:20 am)
Average temperature yesterday: 58 °F

High & Low Weather Summary for the Past Weeks

 TemperatureHumidityPressure
High73 °F (Feb 27, 2:20 pm)100% (Feb 27, 6:35 am)30.39 "Hg (Feb 27, 6:35 am)
Low39 °F (Feb 19, 5:50 am)13% (Feb 19, 11:20 am)29.89 "Hg (Feb 27, 2:20 pm)
Average54 °F69%30.14 "Hg
* Reported Feb 12 7:20 pm — Feb 27 7:20 pm, Rehovot, Weather by CustomWeather, © 2017

Note: Actual official high and low records may vary slightly from our data, if they occured in-between our weather recording intervals... More about our weather records

Advertising

Rehovot Weather History for the Previous 24 Hours

Scroll right to see more
 ConditionsComfort  
Time TempWeatherWind HumidityBarometerVisibility
7:20 pm
Mon, Feb 27
64 °FClear.2 mph73%29.89 "Hg10 mi
6:50 pm64 °FClear.1 mph73%29.89 "Hg10 mi
6:20 pm64 °FClear.2 mph73%29.89 "Hg10 mi
5:50 pm66 °FClear.10 mph68%29.89 "Hg6 mi
5:20 pm66 °FClear.5 mph73%29.89 "Hg6 mi
4:50 pm68 °FClear.6 mph64%29.89 "Hg6 mi
4:20 pm68 °FClear.9 mph64%29.89 "Hg6 mi
3:50 pm68 °FClear.8 mph64%29.89 "Hg5 mi
3:20 pm70 °FClear.12 mph64%29.89 "Hg5 mi
2:50 pm72 °FClear.10 mph57%29.89 "Hg5 mi
2:20 pm73 °FClear.8 mph53%29.89 "Hg5 mi
1:50 pm72 °FClear.12 mph57%29.92 "Hg5 mi
1:20 pm72 °FClear.8 mph57%29.92 "Hg5 mi
12:50 pm70 °FClear.7 mph57%29.95 "Hg4 mi
12:20 pm70 °FClear.7 mph60%29.95 "Hg4 mi
11:50 am70 °FHaze.6 mph57%29.98 "Hg3 mi
11:20 am68 °FHaze.5 mph56%29.98 "Hg3 mi
10:50 am68 °FHaze.3 mph64%30.01 "Hg3 mi
10:20 am66 °FHaze.1 mph68%30.01 "Hg2 mi
9:50 am61 °FHaze.6 mph83%30.01 "Hg2 mi
9:35 am59 °FHaze.5 mph88%30.01 "Hg2 mi
8:50 am55 °FFog.2 mph94%30.01 "Hg2 mi
8:05 am54 °FFog.6 mph100%30.04 "Hg1 mi
7:20 am54 °FFog.6 mph100%30.04 "Hg0 mi
6:35 am54 °FFog.6 mph100%30.04 "Hg1 mi
5:50 am54 °FFog.7 mph94%30.04 "Hg2 mi
5:05 am52 °FFog.8 mph88%30.01 "Hg1 mi
4:50 am52 °FFog.7 mph94%30.01 "Hg1 mi
4:35 am52 °FFog.5 mph94%30.01 "Hg3 mi
4:20 am52 °FPassing clouds.5 mph94%30.01 "Hg2 mi
4:05 am52 °FPartly cloudy.3 mph94%30.01 "Hg1 mi
3:50 am52 °FPartly cloudy.5 mph82%30.01 "Hg4 mi
3:35 am54 °FPassing clouds.5 mph77%30.01 "Hg6 mi
3:20 am52 °FClear.5 mph82%30.01 "Hg5 mi
2:50 am52 °FClear.2 mph77%30.01 "Hg5 mi
2:20 am52 °FClear.3 mph82%30.01 "Hg6 mi
1:50 am52 °FClear.5 mph82%30.01 "Hg6 mi
1:20 am54 °FClear.2 mph82%30.04 "Hg6 mi
12:50 am52 °FClear.2 mph82%30.04 "Hg5 mi
12:30 am54 °FClear.3 mph82%30.04 "Hg5 mi
11:50 pm
Sun, Feb 26
54 °FClear.2 mph82%30.04 "Hg5 mi
11:20 pm55 °FClear.5 mph77%30.04 "Hg5 mi
10:50 pm55 °FClear.3 mph82%30.07 "Hg5 mi
10:20 pm55 °FClear.1 mph82%30.07 "Hg6 mi
9:50 pm54 °FClear.2 mph88%30.07 "Hg6 mi
9:20 pm57 °FClear.1 mph77%30.07 "Hg6 mi
8:50 pm61 °FClear.5 mph72%30.07 "Hg6 mi
8:20 pm59 °FClear.1 mph77%30.07 "Hg6 mi
Weather by CustomWeather, © 2017

See weather overviewHow to use our weather pages